Location: Notre Dame Regional High School Observatory
(37.3056°N, 89.6097°W)
Time: 02:13:16
(UTC-05:00)

Okean-O - Visible Passes

Search period start: 29 August 2016 00:00
Search period end: 08 September 2016 00:00
Orbit: 640 x 642 km, 98.2° (Epoch: 29 August)

Date Brightness Start Highest point End Pass type
(mag) Time Alt. Az. Time Alt. Az. Time Alt. Az.
29 Aug 3.8 04:51:02 10° NNE 04:55:17 43° E 04:59:29 10° S visible
30 Aug 2.7 05:14:30 10° NNE 05:18:57 82° ESE 05:23:22 10° S visible
31 Aug 5.5 04:04:01 10° ENE 04:05:45 12° E 04:07:30 10° ESE visible
31 Aug 2.8 05:38:12 10° N 05:42:33 53° WNW 05:46:51 10° SSW visible
01 Sep 4.9 04:26:07 10° NE 04:29:35 22° E 04:33:03 10° SSE visible
01 Sep 3.6 06:02:12 10° N 06:06:03 29° WNW 06:09:53 10° SW visible
02 Sep 3.9 04:49:09 10° NNE 04:53:21 40° E 04:57:30 10° S visible
03 Sep 2.8 05:12:34 10° NNE 05:17:01 77° ESE 05:21:27 10° S visible
04 Sep 5.6 04:02:25 10° ENE 04:03:48 11° E 04:05:12 10° ESE visible
04 Sep 2.7 05:36:15 10° N 05:40:37 57° WNW 05:44:58 10° SSW visible
05 Sep 5.0 04:24:16 10° NE 04:27:39 21° E 04:31:00 10° SE visible
05 Sep 3.5 06:00:14 10° N 06:04:08 31° WNW 06:08:02 10° SW visible
06 Sep 4.0 04:47:15 10° NNE 04:51:24 38° E 04:55:32 10° SSE visible
07 Sep 2.8 05:10:39 10° NNE 05:15:06 72° ESE 05:19:30 10° S visible
